Regional Weather Roundup
Issued by NWS Sterling, VA

Home | Current Version | Previous Version | Text Only | Print | Product List | Glossary Off
Versions: 1 2 3 4 5 6 7 8 9 10 11 12 13 14 15 16 17 18 19 20 21 22 23 24 25 26 27

000
ASUS41 KLWX 241311
RWRLWX

REGIONAL WEATHER ROUNDUP
NATIONAL WEATHER SERVICE BALTIMORE MD/WASHINGTON DC
900 AM EDT SAT JUN 24 2017

Note: "FAIR" indicates few or no clouds below 12,000 feet
with no significant weather and/or obstructions to visibility.
 TC=TEMPERATURE CELSIUS

 * =Non NWS site. Station does not report precipitation (e.g. rain,
    snow, etc.), thunder, or fog.

DCZ001-MDZ009-015-VAZ040>042-051-053>054-241400-
WASHINGTON METRO

CITY           SKY/WX    TMP DP  RH WIND       PRES   REMARKS
WASHINGTON NAT MOSUNNY   80  67  64 W13G21    29.79R
DULLES         PTSUNNY   76  65  68 W10       29.81R
ANDREWS AFB    SUNNY     78  65  64 W20G29    29.78R
FT BELVOIR     SUNNY     79  66  62 W14       29.79R
QUANTICO       LGT RAIN  80  68  66 W9        29.81R
COLLEGE PARK*  SUNNY     77  65  67 W15G28    29.78R
LEESBURG*      CLOUDY   N/A N/A N/A NW8       29.83R
MANASSAS*      SUNNY     79  64  61 W9        29.81R
GAITHERSBURG*  PTSUNNY   75  67  76 W10       29.81R

$$

MDZ006>007-011-014-241400-
BALTIMORE METRO

CITY           SKY/WX    TMP DP  RH WIND       PRES   REMARKS
BWI AIRPORT    MOSUNNY   77  68  73 W17G28    29.75R
MD SCIENCE CTR   N/A     79  67  66 MISG      29.74R
MARTIN STATE   MOSUNNY   79  72  78 W10G20    29.75R
ANNAPOLIS      SUNNY     77  71  82 VRB7      29.76R
FORT MEADE*    SUNNY     73  68  83 W15G24    29.79R

$$

MDZ012-015-019>023-241400-
MARYLAND EASTERN SHORE

CITY           SKY/WX    TMP DP  RH WIND       PRES   REMARKS
OCEAN CITY     PTSUNNY   75  72  90 W8        29.76R
SALISBURY      MOSUNNY   78  71  79 W9G21     29.77R
BAY BRIDGE AP* SUNNY     77  70  78 W13G21    29.76R
CAMBRIDGE*     MOSUNNY   77  70  78 W9G17     29.78R
EASTON*        MOSUNNY   77  68  73 NW13G23   29.80R

$$

MDZ017>025-241400-
SOUTHERN MARYLAND

CITY           SKY/WX    TMP DP  RH WIND       PRES   REMARKS
PATUXENT RIVER MOSUNNY   78  68  71 NW16      29.79R
ST INIGOES     SUNNY     79  69  71 W12       29.79R
LEONARDTOWN*   SUNNY     77  66  69 W9        29.81R

$$

MDZ003>005-241400-
NORTH CENTRAL MARYLAND

CITY           SKY/WX    TMP DP  RH WIND       PRES   REMARKS
FREDERICK*     MOSUNNY   77  64  65 W14G20    29.82R
HAGERSTOWN APT PTSUNNY   77  64  64 NW15      29.80R
WESTMINSTER*   SUNNY     73  68  83 W12G17    29.78R

$$

MDZ501>502-241400-
WESTERN MARYLAND

CITY           SKY/WX    TMP DP  RH WIND       PRES   REMARKS
OAKLAND*       NOT AVBL
CUMBERLAND*    PTSUNNY   75  61  60 NW8G16    29.87R

$$

VAZ025>031-241400-
SHENANDOAH VALLEY

CITY           SKY/WX    TMP DP  RH WIND       PRES   REMARKS
WINCHESTER*    PTSUNNY   73  63  68 W13G18    29.83R
FRONT ROYAL*   PTSUNNY   77  64  65 W10       29.83R
LURAY*         MOSUNNY   77  64  65 S5        29.85R
NEW MARKET*    MOSUNNY   77  62  59 SW7       29.85R
STAUNTON*      MOSUNNY   73  64  73 S8        29.91R
WAYNESBORO*    SUNNY     72  64  77 SW8       29.91R

$$

WVZ021-048>050-054>055-241400-
EASTERN WEST VIRGINIA PANHANDLE

CITY           SKY/WX    TMP DP  RH WIND       PRES   REMARKS
MARTINSBURG    MOSUNNY   76  64  66 W13       29.81R
PETERSBURG*    MOSUNNY   76  61  61 W10       29.89R

$$

VAZ036>039-050-241400-
CENTRAL FOOTHILLS

CITY           SKY/WX    TMP DP  RH WIND       PRES   REMARKS
CHARLOTTESVILL MOSUNNY   77  63  61 SW5       29.85R
CULPEPER*      SUNNY     80  66  62 W6        29.83R
ORANGE*        SUNNY     79  64  61 SW13      29.83R
GORDONSVILLE*  SUNNY     80  65  61 SW12      29.83R
WARRENTON*     SUNNY     81  62  52 W7        29.81R

$$

VAZ055>057-241400-
NORTH AND CENTRAL PIEDMONT

CITY           SKY/WX    TMP DP  RH WIND       PRES   REMARKS
FREDERICKSBRG* SUNNY     80  67  65 W7        29.81R
STAFFORD*      SUNNY     79  67  66 W9        29.85R

$$

NCZ024-NYZ072-PAZ021-071-VAZ022-071-241400-
OTHER REGIONAL OBSERVATIONS

CITY           SKY/WX    TMP DP  RH WIND       PRES   REMARKS
NEW YORK CITY  CLOUDY    72  70  93 VRB3      29.63R
PHILADELPHIA   MOSUNNY   76  69  79 W13       29.69R
PITTSBURGH     MOSUNNY   68  61  78 W9        29.87R
ROANOKE        MOSUNNY   73  63  70 W8        29.96R
RICHMOND       MOSUNNY   82  66  58 W13       29.84R
RALEIGH        PTSUNNY   81  74  79 W10       29.94R

$$

ANZ530>537-241400-
MARINE OBSERVATIONS

STATION/POSITION TIME  TEMP    WIND        PRES
                       AIR SEA DIR/SP/G
                 (UTC) (F)     (DEG/KT/KT) (MB)
THOMAS PT LIGHT  1300   76 77  280/ 16/ 18   N/A
BALT KEY BRIDGE  1248   76     270/ 15/ 17 1007.0R
COVE POINT       1248   76     310/ 11/ 18 1009.3R
LEWISETTA        1248   77 77  290/ 11/ 13 1009.2R
SOLOMONS ISLAND  1242   77 76  280/ 10/ 15   N/A
PINEY POINT      1248          310/ 15/ 18   N/A

$$





USA.gov is the U.S. government's official web portal to all federal, state and local government web resources and services.